User: anonymous   Login
Location: Unspecified
(0.0000°N, 0.0000°E)
Time: 21:54:59
(UTC+00:00)
Language:

CUBEBUG 1 - Orbit

View from above orbital plane
View from above orbital plane
View from above satellite
View from above satellite

Ground track
Ground track

The orbit data is extracted from the following two-line orbital elements,

1 39153U 13018D   23083.54084342  .00008653  00000-0  10626-2 0  9999
2 39153  98.0275 199.2564 0016865  63.7932 296.5013 14.83208711535325
Epoch (UTC): 24 March 2023 12:58:48
Eccentricity: 0.0016865
inclination: 98.0275°
perigee height: 607 km
apogee height: 631 km
right ascension of ascending node: 199.2564°
argument of perigee: 63.7932°
revolutions per day: 14.83208711
mean anomaly at epoch: 296.5013°
orbit number at epoch: 53532

The dashed part of the orbit path shows where the satellite is in the earth's shadow,  

DLR